This demonstration page uses our WeatherBlox Daily Observations layout. Learn more.

Left ArrowRight Arrow

41.86663, -103.66717

Hourly Observations for March 28, 2016

Temp ( °F °C ) Dew Point ( °F °C ) Humidity (%) Winds ( mph kmh ) Pressure ( in mb ) Visibility ( mi km ) Precip ( " mm )
12:53 am 00:53 Clear 44 6.7 16 -8.9 32 32 SW 9 15 29.87 1012 10 16 N/A
1:53 am 01:53 Clear 38 3.3 18 -7.8 44 44 SE 5 7 29.87 1012 10 16 N/A
2:53 am 02:53 Clear 40 4.4 17 -8.3 40 40 N N/A 29.85 1011 10 16 N/A
3:53 am 03:53 Clear 35 1.7 18 -7.8 50 50 N N/A 29.84 1011 10 16 N/A
4:53 am 04:53 Clear 30 -1.1 18 -7.8 61 61 NNE 3 6 29.85 1011 10 16 N/A
5:53 am 05:53 Clear 30 -1.1 18 -7.8 61 61 E 3 6 29.85 1011 10 16 N/A
6:53 am 06:53 Sunny 28 -2.2 18 -7.8 66 66 N N/A 29.87 1011 10 16 N/A
7:53 am 07:53 Sunny 32 undefined 23 -5 69 69 N N/A 29.88 1012 10 16 N/A
8:53 am 08:53 Sunny 42 5.6 21 -6.1 43 43 E 7 11 29.85 1011 10 16 N/A
9:53 am 09:53 Sunny 52 11.1 22 -5.6 31 31 ESE 7 11 29.82 1010 10 16 N/A
10:53 am 10:53 Mostly Sunny 57 13.9 24 -4.4 28 28 SE 8 13 29.79 1009 10 16 N/A
11:53 am 11:53 Mostly Sunny 65 18.3 18 -7.8 16 16 S 17 28 29.75 1007 10 16 N/A
12:04 pm 12:04 Mostly Sunny 66 19 18 -8 15 15 S 17 28 29.62 1003 10 16 N/A
12:53 pm 12:53 Sunny 67 19.4 19 -7.2 16 16 S 16 26 29.72 1006 10 16 N/A
1:53 pm 13:53 Sunny 67 19.4 19 -7.2 16 16 S 14 22 29.72 1006 10 16 N/A
2:53 pm 14:53 Sunny 70 21.1 18 -7.8 14 14 S 12 19 29.68 1005 10 16 N/A
3:53 pm 15:53 Sunny 70 21.1 18 -7.8 14 14 SSW 15 24 29.66 1004 10 16 N/A
4:53 pm 16:53 Sunny 69 20.6 17 -8.3 14 14 S 9 15 29.67 1005 10 16 N/A
5:53 pm 17:53 Sunny 66 18.9 21 -6.1 18 18 SE 8 13 29.67 1005 10 16 N/A
6:53 pm 18:53 Sunny 59 15 26 -3.3 28 28 ESE 12 19 29.71 1006 10 16 N/A
7:53 pm 19:53 Clear 54 12.2 26 -3.3 34 34 ESE 12 19 29.72 1006 10 16 N/A
8:53 pm 20:53 Clear 54 12.2 30 -1.1 40 40 ESE 16 26 29.71 1006 10 16 N/A
9:53 pm 21:53 Clear 52 11.1 30 -1.1 43 43 E 14 22 29.68 1005 10 16 N/A
10:53 pm 22:53 Clear 51 10.6 30 -1.1 44 44 E 15 24 29.66 1005 10 16 N/A
11:53 pm 23:53 Clear 50 10 31 -0.6 48 48 ESE 16 26 29.63 1003 10 16 N/A

Powered by AerisWeather